Torna al catalogo

DELTA 1 DEB

AttivoSSO
NORAD 12269·DEBRIS·🇺🇸 United States

Lanciato Mar 5, 1978 da Vandenberg Space Force Base

Loading…

Prossimi Passaggi (prossime 24 ore)

TLE

AggiornatoSource: Space-Track

Epoca: Sep 14, 2026, 11:05 UTC

1 12269U 78026DN  26257.46210590  .00006507  00000-0  57391-3 0  9998
2 12269  98.1090 260.1661 0034856 184.2243 339.0922 14.96317238407431

Traccia DELTA 1 DEB in tempo reale con AllMySat

Download on the App Store